Clayton Lake, ME

7:34 PM EDT on June 26, 2017 (GMT -0400)
Clayton Lake

Weather History for K40B - January, 2013

Change the Weather History Date:

Monday, January 14, 2013

  Actual Average Record
Temperature  
Mean Temperature 37 °F -  
Max Temperature 49 °F 16 °F 49 °F (2013)
Min Temperature 25 °F -6 °F -38 °F (1999)
Degree Days  
Heating Degree Days 28    
Moisture  
Dew Point 26 °F    
Average Humidity 67    
Maximum Humidity 85    
Minimum Humidity 60    
Precipitation  
Precipitation 0.01 in - - ()
Sea Level Pressure  
Sea Level Pressure 29.90 in    
Wind  
Wind Speed 6 mph (SSW)    
Max Wind Speed 13 mph    
Max Gust Speed 34 mph    
Averages and records for this station are not official NWS values.
T = Trace of Precipitation, MM = Missing Value Source: NWS Daily Summary

Daily Weather History Graph

Daily Weather History Graph

Search for Another Location

Airport or City:

Trip Planner

Search our weather history database for the weather conditions in past years. The results will help you decide how hot, cold, wet, or windy it might be!

Date:

Astronomy

Jan. 14, 2013 Rise Set
Actual Time 7:18 AM EST 4:16 PM EST
Civil Twilight 6:44 AM EST 4:50 PM EST
Nautical Twilight 6:07 AM EST 5:28 PM EST
Astronomical Twilight 5:30 AM EST 6:04 PM EST
Moon 8:35 AM EST (1/14) 8:14 PM EST (1/14)
Length of Visible Light 10h 05m
Length of Day
8h 57m
Waxing Crescent, 11% of the Moon is Illuminated
Jan 14
Waxing Crescent
Jan 18
First Quarter
Jan 26
Full
Feb 3
Last Quarter
Feb 10
New

Hourly Weather History & Observations

Time (EST) Temp. Windchill Dew Point Humidity Pressure Visibility Wind Dir Wind Speed Gust Speed Precip Events Conditions
12:25 AM 38.3 °F 33.9 °F - N/A% 29.84 in - Variable 5.8 mph - N/A   Unknown
1:25 AM 38.3 °F 35.9 °F - N/A% 29.83 in - Variable 3.5 mph - N/A   Unknown
2:25 AM 38.5 °F 35.0 °F - N/A% 29.83 in - Variable 4.6 mph - N/A   Unknown
3:25 AM 38.3 °F - - N/A% 29.78 in - Calm Calm - N/A   Unknown
4:25 AM 38.7 °F 32.4 °F - N/A% 29.75 in - SSE 9.2 mph 16.1 mph N/A   Unknown
5:25 AM 39.6 °F 37.4 °F - N/A% 29.74 in - Variable 3.5 mph - N/A   Unknown
6:25 AM 41.4 °F 37.6 °F - N/A% 29.71 in - Variable 5.8 mph 16.1 mph N/A   Unknown
7:25 AM 41.7 °F 34.8 °F - N/A% 29.70 in - South 12.7 mph 17.3 mph N/A   Unknown
8:26 AM 42.6 °F 36.8 °F - N/A% 29.74 in - South 10.4 mph - N/A   Unknown
9:25 AM 48.0 °F - 43.7 °F 85% 29.74 in - SSW 12.7 mph 34.5 mph N/A   Unknown
10:25 AM 47.5 °F - 41.4 °F 79% 29.76 in - SW 12.7 mph 32.2 mph N/A   Unknown
11:25 AM 45.1 °F 40.3 °F 37.4 °F 74% 29.81 in - SW 9.2 mph 29.9 mph N/A   Unknown
12:30 PM 43.9 °F 37.9 °F 33.3 °F 66% 29.83 in - WSW 11.5 mph 29.9 mph 0.00 in   Unknown
1:25 PM 41.2 °F 34.5 °F 28.8 °F 61% 29.87 in - SW 11.5 mph 32.2 mph N/A   Unknown
2:25 PM 40.6 °F 34.8 °F 28.2 °F 61% 29.94 in - SW 9.2 mph 24.2 mph N/A   Unknown
3:25 PM 37.9 °F 33.5 °F 26.8 °F 64% 29.97 in - Variable 5.8 mph 17.3 mph N/A   Unknown
4:25 PM 35.2 °F 29.5 °F 24.8 °F 66% 30.02 in - Variable 6.9 mph 20.7 mph N/A   Unknown
5:25 PM 33.1 °F 30.0 °F 23.9 °F 69% 30.05 in - Variable 3.5 mph - 0.00 in   Unknown
6:25 PM 32.2 °F 27.7 °F 22.1 °F 66% 30.07 in - Variable 4.6 mph 20.7 mph N/A   Unknown
7:25 PM 30.2 °F 24.3 °F 18.0 °F 60% 30.09 in - Variable 5.8 mph 25.3 mph N/A   Unknown
8:25 PM 28.9 °F 21.9 °F 17.6 °F 63% 30.11 in - Variable 6.9 mph 13.8 mph 0.00 in   Unknown
9:27 PM 27.7 °F 23.8 °F 16.5 °F 63% 30.16 in - Variable 3.5 mph - N/A   Unknown
10:25 PM 26.4 °F - 15.3 °F 63% 30.16 in - Calm Calm - N/A   Unknown
11:25 PM 25.2 °F 20.9 °F 15.8 °F 68% 30.19 in - Variable 3.5 mph - N/A   Unknown